Current Version              Previous Version:    01  02  03  04  05  06  07  08  09  10  11  12  13  14  15  16  17  18  19  20  21  22  23  24  25  26  27  28  29  30  
   31  32  33  34  35  36  37  38  39  40  41  42  43  44  45  46  47  48  49  50  51  52  53  54  55  56  57  58  59  60  

[Printable]
612
ASUS44 KFWD 190101
RWRTX
NORTH TEXAS HOURLY WEATHER ROUNDUP
NATIONAL WEATHER SERVICE FORT WORTH TX
800 PM CDT FRI APR 18 2014

NOTE: "FAIR" INDICATES FEW OR NO CLOUDS BELOW 12,000 FEET WITH NO
SIGNIFICANT WEATHER AND/OR OBSTRUCTIONS TO VISIBILITY.

TXZ118-119-190200-
DALLAS/FORT WORTH METROPLEX

CITY           SKY/WX    TMP DP  RH WIND       PRES   REMARKS
DFW AIRPORT    MOCLDY    72  45  37 SE3       30.12S
DALLAS LOVE    MOCLDY    72  43  35 E7        30.12S
FTW MEACHAM    PTCLDY    72  48  42 CALM      30.11S
DAL-EXECUTIVE  PTCLDY    68  48  48 SE5       30.12S
FTW-ALLIANCE   MOCLDY    68  50  52 CALM      30.12S
FTW-NAS-JRB    PTCLDY    74  46  36 VRB6      30.16S
ARLINGTON      MOCLDY    69  50  50 CALM      30.12S
GRAND PRAIRIE  PTCLDY    72  45  37 CALM      30.14S
ADDISON        MOCLDY    72  41  33 E6        30.13R
MESQUITE       CLEAR     70  43  37 MISG      30.13S
$$

TXZ091>094-102>105-117-120-121-131>134-190200-
NORTH CENTRAL TEXAS

CITY           SKY/WX    TMP DP  RH WIND       PRES   REMARKS
SHRMAN/DENISON CLEAR     69  41  36 SE3       30.14R
DENTON         PTCLDY    70  47  43 CALM      30.12S
MCKINNEY       CLEAR     70  44  39 CALM      30.13R
ROCKWALL       CLEAR     69  46  43 E3        30.12S
TERRELL        CLEAR     70  45  40 CALM      30.13R
$$

TXZ083>090-098>101-113>116-127>130-139>142-154-155-190200-
WESTERN NORTH TEXAS

CITY           SKY/WX    TMP DP  RH WIND       PRES   REMARKS
WICHITA FALLS  PTCLDY    65  51  60 S6        30.10F
ABILENE        MOCLDY    70  44  39 SE12      30.10F
BRECKENRIDGE   MOCLDY    70  47  43 SE7       30.10F
MINERAL WELLS  MOCLDY    68  51  54 SE3       30.10F
BROWNWOOD      MOCLDY    68  50  52 E8        30.11S
$$

TXZ143>147-156>162-174-175-190200-
CENTRAL TEXAS

CITY           SKY/WX    TMP DP  RH WIND       PRES   REMARKS
WACO           MOCLDY    69  53  56 E3        30.12S
WACO-MCGREGOR  PTCLDY    68  50  52 E6        30.13F
CORSICANA      CLEAR     68  49  50 NW3       30.13F
MEXIA          CLEAR     67  51  56 CALM      30.12S
TEMPLE         MOCLDY    66  50  55 E7        30.14F
KILLEEN        NOT AVBL
KILLEEN-SKYLRK MOCLDY    70  52  52 E3        30.11S
LAMPASAS       MOCLDY    71  55  57 E5        30.11S
$$

TXZ095>097-106>112-122>126-135>138-148>153-164>167-190200-
EAST TEXAS

CITY           SKY/WX    TMP DP  RH WIND       PRES   REMARKS
PARIS          CLEAR     66  46  48 S6        30.13S
TYLER          CLEAR     71  47  42 E3        30.13R
LONGVIEW       MOCLDY    66  51  58 E3        30.12R
ATHENS         CLEAR     64  48  55 CALM      30.11S
NACOGDOCHES    CLEAR     64  52  63 CALM      30.13R
LUFKIN         CLEAR     70  53  54 CALM      30.12R
$$

SUPPLEMENTAL OBSERVATIONS (CENTRAL)

CITY           SKY/WX    TMP DP  RH WIND       PRES   REMARKS
$$

SUPPLEMENTAL OBSERVATIONS (WEST)

CITY           SKY/WX    TMP DP  RH WIND       PRES   REMARKS
$$

SUPPLEMENTAL OBSERVATIONS (EAST)

CITY           SKY/WX    TMP DP  RH WIND       PRES   REMARKS
$$

SUPPLEMENTAL OBSERVATIONS ARE A COLLECTION OF AUTOMATED INSTRUMENTS
THAT ARE MAINTAINED BY A VARIETY OF FEDERAL AND STATE AGENCIES.
CERTAIN ELEMENTS...SUCH AS HUMIDITY VALUES AND SUSTAINED WIND
SPEEDS...MAY BE APPROXIMATED.